TimeAST,TemperatureF,Dew PointF,Humidity,Sea Level PressureIn,VisibilityMPH,Wind Direction,Wind SpeedMPH,Gust SpeedMPH,PrecipitationIn,Events,Conditions,WindDirDegrees,DateUTC
12:53 AM,81.0,77.0,88,29.96,10.0,East,11.5,-,N/A,,Partly Cloudy,90,2013-08-18 04:53:00
1:53 AM,80.1,75.9,87,29.96,10.0,East,16.1,-,N/A,,Scattered Clouds,100,2013-08-18 05:53:00
2:53 AM,79.0,75.9,90,29.94,10.0,ESE,12.7,-,0.00,,Mostly Cloudy,110,2013-08-18 06:53:00
3:53 AM,77.0,75.9,96,29.95,10.0,East,11.5,-,0.02,Rain,Light Rain,100,2013-08-18 07:53:00
4:53 AM,75.9,73.9,94,29.97,10.0,East,15.0,19.6,0.08,Rain,Rain,100,2013-08-18 08:53:00
5:27 AM,77.0,77.0,100,-9999,10.0,SE,23.0,29.9,0.51,Rain,Heavy Rain,140,2013-08-18 09:27:00
5:41 AM,75.2,75.2,100,30.01,10.0,SE,10.4,21.9,1.19,Rain,Heavy Rain,140,2013-08-18 09:41:00
5:53 AM,73.9,73.9,100,29.99,10.0,Calm,Calm,-,1.46,Rain,Heavy Rain,0,2013-08-18 09:53:00
6:18 AM,73.4,73.4,100,30.00,10.0,Calm,Calm,-,0.19,Rain,Heavy Rain,0,2013-08-18 10:18:00
6:53 AM,75.9,75.9,100,30.00,10.0,Calm,Calm,-,0.40,Rain,Rain,0,2013-08-18 10:53:00
7:14 AM,75.2,75.2,100,30.02,10.0,East,4.6,-,0.05,Rain,Heavy Rain,80,2013-08-18 11:14:00
7:35 AM,75.2,75.2,100,30.01,10.0,SSE,3.5,-,0.42,Rain,Heavy Rain,160,2013-08-18 11:35:00
7:50 AM,75.2,75.2,100,30.03,10.0,SSE,9.2,-,0.42,Rain,Light Rain,150,2013-08-18 11:50:00
7:53 AM,75.9,75.9,100,30.04,10.0,SSE,9.2,-,0.43,Rain,Rain,150,2013-08-18 11:53:00
8:00 AM,77.0,77.0,100,30.03,10.0,SSE,12.7,-,0.01,Rain,Light Rain,160,2013-08-18 12:00:00
8:32 AM,75.2,75.2,100,30.03,10.0,Calm,Calm,-,0.31,Rain,Heavy Rain,0,2013-08-18 12:32:00
8:46 AM,75.2,75.2,100,30.02,10.0,ENE,3.5,-,0.32,Rain,Light Rain,60,2013-08-18 12:46:00
8:53 AM,75.9,75.9,100,30.02,10.0,Calm,Calm,-,0.33,Rain,Light Rain,0,2013-08-18 12:53:00
9:53 AM,81.0,81.0,100,30.01,10.0,ESE,5.8,-,0.01,,Scattered Clouds,110,2013-08-18 13:53:00
10:53 AM,82.0,80.1,94,30.01,10.0,SSW,6.9,-,0.00,,Mostly Cloudy,200,2013-08-18 14:53:00
11:53 AM,84.9,79.0,82,30.00,10.0,East,13.8,18.4,N/A,,Partly Cloudy,90,2013-08-18 15:53:00
12:53 PM,87.1,79.0,77,29.99,10.0,East,15.0,-,N/A,,Mostly Cloudy,100,2013-08-18 16:53:00
1:53 PM,86.0,77.0,74,29.96,10.0,ESE,13.8,-,N/A,,Scattered Clouds,110,2013-08-18 17:53:00
2:53 PM,86.0,78.1,77,29.94,10.0,East,13.8,-,N/A,,Partly Cloudy,90,2013-08-18 18:53:00
3:53 PM,84.9,77.0,77,29.94,10.0,ENE,9.2,-,N/A,,Clear,70,2013-08-18 19:53:00
4:53 PM,84.9,78.1,80,29.93,10.0,East,10.4,-,N/A,,Mostly Cloudy,80,2013-08-18 20:53:00
5:53 PM,84.0,77.0,79,29.94,10.0,East,9.2,-,N/A,,Partly Cloudy,80,2013-08-18 21:53:00
6:53 PM,82.9,78.1,85,29.94,10.0,East,9.2,-,N/A,,Partly Cloudy,80,2013-08-18 22:53:00
7:53 PM,82.0,77.0,85,29.96,10.0,East,9.2,-,N/A,,Clear,90,2013-08-18 23:53:00
8:53 PM,82.0,77.0,85,29.96,10.0,East,16.1,23.0,N/A,,Clear,80,2013-08-19 00:53:00